Powrót do katalogu

USA 462

AktywnyMilitariaVLEO
NORAD 62361·PAYLOAD·🇺🇸 United States

Wystrzelony Dec 17, 2024 z Vandenberg Space Force Base

Loading…

Następne Przeloty (najbliższe 24 godziny)

TLE

NieaktualneSource: Mike McCants

Epoka: Aug 12, 2026, 21:17 UTC

1 62361U 24243X   26224.88701016 0.00000000  00000-0  00000-0 0    03
2 62361  70.0190 139.5749 0002000 270.4481  89.5519 14.96713300    04

Śledź USA 462 w czasie rzeczywistym z AllMySat

Download on the App Store